Regional Weather Roundup
Issued by NWS

Home | Current Version | Previous Version | Text Only | Print | Product List | Glossary On
Versions: 1 2 3 4 5 6 7 8 9 10 11 12 13 14 15 16 17 18 19 20 21 22 23 24 25 26 27 28 29 30 31 32 33 34 35 36 37 38 39 40 41 42 43 44 45 46 47 48 49 50
000
ASUS43 KBIS 250231
RWRND
NORTH DAKOTA REGIONAL WEATHER ROUNDUP
NATIONAL WEATHER SERVICE EASTERN NORTH DAKOTA/GRAND FORKS ND
900 PM CDT SAT JUN 24 2017

  NOTE: "FAIR" INDICATES FEW OR NO CLOUDS BELOW 12,000 FEET WITH NO
  SIGNIFICANT WEATHER AND/OR OBSTRUCTIONS TO VISIBILITY.

NDZ001>003-009>011-017-250300-
...NORTHWEST NORTH DAKOTA...

CITY           SKY/WX    TMP DP  RH WIND       PRES   REMARKS
WILLISTON      FAIR      66  33  29 N8        30.27S
MINOT          FAIR      59  38  45 NW9       30.24S
MINOT AFB      NOT AVBL
$$

NDZ018>021-031>035-040>046-250300-
...SOUTHWEST NORTH DAKOTA...

CITY           SKY/WX    TMP DP  RH WIND       PRES   REMARKS
BISMARCK       FAIR      60  38  43 N10       30.25S
DICKINSON      FAIR      60  30  32 N10       30.28R
GARRISON         N/A     57  37  47 N10       30.25S
HETTINGER      FAIR      62  31  31 N13       30.30R
$$

NDZ004>008-012>016-024-026-027-054-250300-
...NORTHEAST NORTH DAKOTA...

CITY           SKY/WX    TMP DP  RH WIND       PRES   REMARKS
GRAND FORKS    CLOUDY    52  48  86 NW12      30.14S
GRAND FORKS AF NOT AVBL
DEVILS LAKE    CLOUDY    55  45  68 N8        30.20S
$$

NDZ022-023-025-028>030-036>039-047>053-250300-
...SOUTHEAST NORTH DAKOTA...

CITY           SKY/WX    TMP DP  RH WIND       PRES   REMARKS
JAMESTOWN      CLOUDY    54  46  74 N17       30.20R
FARGO          CLOUDY    53  47  79 NW18G25   30.14R
WAHPETON       CLOUDY    55  43  62 NW20G25   30.14R
$$



USA.gov is the U.S. government's official web portal to all federal, state and local government web resources and services.